This demonstration page uses our WeatherBlox Daily Observations layout. Learn more.

Left ArrowRight Arrow

41.86663, -103.66717

Hourly Observations for January 29, 2015

Temp ( °F °C ) Dew Point ( °F °C ) Humidity (%) Winds ( mph kmh ) Pressure ( in mb ) Visibility ( mi km ) Precip ( " mm )
12:53 am 00:53 Mostly Cloudy 36 2.2 26 -3.3 67 67 NW 13 20 30.45 1031 10 16 0.00 0.00
1:53 am 01:53 Partly Cloudy 35 1.7 25 -3.9 67 67 NW 13 20 30.38 1029 10 16 0.00 0.00
2:53 am 02:53 Partly Cloudy 34 1.1 25 -3.9 70 70 W 13 20 30.41 1030 10 16 0.00 0.00
3:53 am 03:53 Mostly Clear 34 1.1 26 -3.3 73 73 WNW 14 22 30.43 1030 10 16 0.00 0.00
4:53 am 04:53 Clear 33 0.6 26 -3.3 75 75 WNW 12 19 30.46 1031 10 16 0.00 0.00
5:53 am 05:53 Clear 30 -1.1 24 -4.4 79 79 WNW 7 11 30.49 1033 10 16 0.00 0.00
6:53 am 06:53 Clear 29 -1.7 24 -4.4 82 82 WNW 9 15 30.53 1034 10 16 0.00 0.00
7:53 am 07:53 Sunny 30 -1.1 25 -3.9 82 82 WNW 10 17 30.56 1035 10 16 0.00 0.00
8:53 am 08:53 Sunny 34 1.1 24 -4.4 67 67 WNW 12 19 30.53 1034 10 16 0.00 0.00
9:53 am 09:53 Sunny 37 2.8 23 -5 57 57 WNW 14 22 30.55 1035 10 16 0.00 0.00
10:53 am 10:53 Sunny 42 5.6 23 -5 47 47 WNW 6 9 30.53 1034 10 16 0.00 0.00
11:53 am 11:53 Sunny 45 7.2 20 -6.7 37 37 W 8 13 30.50 1033 10 16 0.00 0.00
12:53 pm 12:53 Sunny 46 7.8 21 -6.1 37 37 Calm 30.47 1032 10 16 0.00 0.00
1:53 pm 13:53 Sunny 49 9.4 19 -7.2 31 31 Calm 30.44 1031 10 16 0.00 0.00
2:53 pm 14:53 Sunny 49 9.4 18 -7.8 29 29 NNE 3 6 30.43 1031 10 16 0.00 0.00
3:53 pm 15:53 Sunny 47 8.3 20 -6.7 34 34 Calm 30.43 1030 10 16 0.00 0.00
4:53 pm 16:53 Sunny 41 5 22 -5.6 47 47 SE 7 11 30.45 1031 10 16 0.00 0.00
5:53 pm 17:53 Clear 32 0 24 -4.4 73 73 ESE 7 11 30.48 1032 10 16 0.00 0.00
6:53 pm 18:53 Clear 30 -1.1 23 -5 75 75 ESE 8 13 30.48 1032 10 16 0.00 0.00
7:53 pm 19:53 Clear 30 -1.1 22 -5.6 72 72 SE 7 11 30.48 1032 10 16 0.00 0.00
8:53 pm 20:53 Clear 29 -1.7 22 -5.6 75 75 ESE 7 11 30.46 1032 10 16 0.00 0.00
9:53 pm 21:53 Clear 28 -2.2 22 -5.6 78 78 E 9 15 30.44 1031 10 16 0.00 0.00
10:53 pm 22:53 Clear 28 -2.2 21 -6.1 75 75 E 8 13 30.42 1030 10 16 0.00 0.00
11:53 pm 23:53 Clear 28 -2.2 21 -6.1 75 75 E 8 13 30.39 1029 10 16 0.00 0.00

Powered by AerisWeather